TimeCDT,TemperatureF,Dew PointF,Humidity,Sea Level PressureIn,VisibilityMPH,Wind Direction,Wind SpeedMPH,Gust SpeedMPH,PrecipitationIn,Events,Conditions,WindDirDegrees,DateUTC
12:56 AM,57.9,55.9,93,29.84,10.0,WNW,3.5,-,N/A,,Scattered Clouds,290,2013-08-02 05:56:00
1:56 AM,57.9,55.9,93,29.82,10.0,Calm,Calm,-,N/A,,Clear,0,2013-08-02 06:56:00
2:56 AM,57.9,55.0,90,29.83,10.0,Calm,Calm,-,N/A,,Clear,0,2013-08-02 07:56:00
3:56 AM,55.9,55.0,97,29.83,9.0,SW,4.6,-,N/A,,Clear,220,2013-08-02 08:56:00
4:56 AM,55.9,55.0,97,29.84,8.0,Calm,Calm,-,N/A,,Clear,0,2013-08-02 09:56:00
5:56 AM,55.0,54.0,96,29.84,4.0,Calm,Calm,-,N/A,,Clear,0,2013-08-02 10:56:00
6:56 AM,60.1,55.9,86,29.85,10.0,NW,5.8,-,N/A,,Clear,320,2013-08-02 11:56:00
7:56 AM,64.9,57.0,75,29.87,10.0,NW,8.1,-,N/A,,Clear,310,2013-08-02 12:56:00
8:56 AM,70.0,55.9,61,29.88,10.0,NNW,8.1,-,N/A,,Clear,340,2013-08-02 13:56:00
9:56 AM,73.0,55.0,53,29.88,10.0,NNW,10.4,-,N/A,,Clear,340,2013-08-02 14:56:00
10:56 AM,75.0,55.0,50,29.89,10.0,North,10.4,-,N/A,,Clear,10,2013-08-02 15:56:00
11:56 AM,75.0,51.1,43,29.90,10.0,NW,10.4,-,N/A,,Clear,320,2013-08-02 16:56:00
12:56 PM,75.9,50.0,40,29.90,10.0,NNW,5.8,-,N/A,,Partly Cloudy,340,2013-08-02 17:56:00
1:56 PM,77.0,48.0,36,29.91,10.0,NNW,6.9,-,N/A,,Clear,340,2013-08-02 18:56:00
2:56 PM,78.1,48.0,35,29.91,10.0,NNW,9.2,-,N/A,,Clear,340,2013-08-02 19:56:00
3:56 PM,77.0,48.0,36,29.92,10.0,NNW,8.1,-,N/A,,Scattered Clouds,330,2013-08-02 20:56:00
4:56 PM,75.9,48.0,37,29.92,10.0,NW,8.1,-,N/A,,Partly Cloudy,320,2013-08-02 21:56:00
5:56 PM,75.9,48.0,37,29.92,10.0,NW,10.4,-,N/A,,Clear,320,2013-08-02 22:56:00
6:56 PM,75.0,48.0,38,29.93,10.0,NW,10.4,-,N/A,,Clear,310,2013-08-02 23:56:00
7:56 PM,72.0,48.9,44,29.95,10.0,WNW,5.8,-,N/A,,Clear,300,2013-08-03 00:56:00
8:56 PM,68.0,51.1,55,29.96,10.0,WNW,4.6,-,N/A,,Clear,300,2013-08-03 01:56:00
9:56 PM,63.0,52.0,67,29.98,10.0,Calm,Calm,-,N/A,,Scattered Clouds,0,2013-08-03 02:56:00
10:56 PM,62.1,52.0,70,29.99,10.0,NW,3.5,-,N/A,,Mostly Cloudy,320,2013-08-03 03:56:00
11:56 PM,62.1,52.0,70,30.01,10.0,NNW,3.5,-,N/A,,Clear,340,2013-08-03 04:56:00